sat.trackr.live / text

‹ back to catalog

STARLINK-30445

NORAD 57873 · 2023-144K

PAYLOAD ACTIVE UNKNOWN

§ Identity

Operator
Country
US
Launch date
2023-09-16
Launch site
AFETR
Launch vehicle
Mass (kg)
RCS (m²)

Purposes: comms

External: N2YO · Heavens-Above · Gunter

§ Orbital elements

Epoch: 2026-09-20T01:34:07.879008Z

Period
94.27 min
Inclination
43.0033°
Eccentricity
0.0001091
Mean motion
15.27574967 rev/d
Perigee alt
482.3 km
Apogee alt
483.8 km
Semi-major
6,861.2 km
B*
1.3584e-6
RAAN
267.5640°
Arg perigee
272.0131°
Mean anomaly
88.0596°
Rev number
16,732

§ Raw data

STARLINK-304451 57873U 23144K   26263.06536897 -.00000225  00000+0  13584-5 0  99922 57873  43.0033 267.5640 0001091 272.0131  88.0596 15.27574967167320

JSON: /api/v1/satellites/57873 · /tle

For live sub-satellite position, see the globe view (requires WebGL).

§ Visibility from observer

Set your observer location to see the next 7 days of passes ≥ 10°. The values pass through the URL so the page stays shareable.

No JS? Fill the form by hand. The geolocation button needs JavaScript.